Domov               UVHVVR             MKGP            O straneh              
ZDRAVSTVENO VARSTVO RASTLIN
  MREŽA AGROMET. POSTAJ
 ► PROGNOSTIČNA OBVESTILA
AGROMETEOROLOŠKI PODATKI -
ARSO
OBVLADOVANJE TVEGANJ ZARADI
NEUGODNIH VREMENSKIH RAZMER
  ► NARAVNE NESREČE
  ► SUŠA/MOČA
  ► NAMAKANJE
  ► ŽLED (gozdarstvo)
KARTOGRAFSKI PRIKAZI
SPLETNE POVEZAVE
PROJEKTI IN PUBLIKACIJE

AGROMETEOROLOŠKA MREŽA: VREMENSKE POSTAJE IN FENOLOŠKA OPAZOVANJA

Pregled podatkov za lokacijo Bilje FURS, meteorološka postaja 859083

Pregled senzorjev na lokaciji

ID Ime Zadnja
vrednost
Datum
zadnje
spremembe
Tip
senzorja
3958 Temperatura 2 m (°C) 4,89 °C 11.12.2017 10:00 50YA
3959 Relativna vlaga 2 m (% RH) 100 % RH 11.12.2017 10:00 50YA
3963 Omočenost lista (U) 8 U 11.12.2017 10:00 A730WET
3964 Padavine (mm) 2,6 mm 11.12.2017 10:00 Rain-O-Matic

Pregled podatkov zadnjih 24 ur

Zap.
št.
Datum in čas Bilje FURS
Omočenost
lista
Padavine Relativna
vlaga
2
m
Temperatura
2
m
0 11.12.2017 10:00 8 2,6 100 4,89
1 11.12.2017 09:30 7 2,4 100 4,74
2 11.12.2017 09:00 4 4,2 100 4,37
3 11.12.2017 08:30 4 3,2 100 3,87
4 11.12.2017 08:00 2 3,4 100 3,57
5 11.12.2017 07:30 2 4,6 100 3,42
6 11.12.2017 07:00 3 4,6 100 3,2
7 11.12.2017 06:30 2 4,4 100 2,82
8 11.12.2017 06:00 3 4,6 100 2,4
9 11.12.2017 05:30 3 4,4 100 2,3
10 11.12.2017 05:00 2 5,2 100 2,36
11 11.12.2017 04:30 2 4,2 100 1,99
12 11.12.2017 04:00 2 3,6 100 1,72
13 11.12.2017 03:30 3 5,6 100 1,64
14 11.12.2017 03:00 3 3,6 100 1,5
15 11.12.2017 02:30 3 4 100 1,21
16 11.12.2017 02:00 4 4,4 100 0,89
17 11.12.2017 01:30 2 3,6 100 0,63
18 11.12.2017 01:00 2 4,2 100 0,38
19 11.12.2017 00:30 4 3,4 100 0,22
20 11.12.2017 00:00 5 2,8 100 0,16
21 10.12.2017 23:30 7 3 100 0,13
22 10.12.2017 23:00 8 3,2 100 0,14
23 10.12.2017 22:30 9 2,4 100 0,11
24 10.12.2017 22:00 9 1 100 0,12
25 10.12.2017 21:30 9 0 100 0,11
26 10.12.2017 21:00 10 0 100 0,08
27 10.12.2017 20:30 10 0 100 0,09
28 10.12.2017 20:00 10 0 100 0,1
29 10.12.2017 19:30 10 0 100 0,06
30 10.12.2017 19:00 10 0 100 0,08
31 10.12.2017 18:30 10 0 99,51 0,11
32 10.12.2017 18:00 10 0 97,65 0,25
33 10.12.2017 17:30 10 0 94,77 0,3
34 10.12.2017 17:00 10 0 92,86 0,75
35 10.12.2017 16:30 10 0 98,01 1,22
36 10.12.2017 16:00 10 0 97,26 1,6
37 10.12.2017 15:30 10 0 94,83 1,69
38 10.12.2017 15:00 9 0 94,29 2,29
39 10.12.2017 14:30 2 0 93,39 2,59
40 10.12.2017 14:00 3 0 94,04 2,44
41 10.12.2017 13:30 3 0 96,6 1,87
42 10.12.2017 13:00 3 0 95,76 1,73
43 10.12.2017 12:30 3 0 96,28 1,55
44 10.12.2017 12:00 3 0 97,05 1,17
45 10.12.2017 11:30 4 0 96,41 0,7
46 10.12.2017 11:00 7 0 95,41 0,66
47 10.12.2017 10:30 10 0 91,31 0,91
© 2011 Ministrstvo za kmetijstvo, gozdarstvo in prehrano. Vse pravice pridržane.